FREGAT R/B, 45609

Orbit data source: Space-Track

FREGAT R/B, 45609 is space debris originally from a launch on Fri, 22 May 2020 UTC launched from the Plesetsk Missile And Space Complex (PKMTR). Debris objects in space refer to the collection of defunct objects orbiting the Earth. Examples of debris include non-operational satellites, rocket bodies, and fragments generated from explosions, collisions, or faulty payload assembly.

Loading next visibility...
Identifier
45609, 2020-031B
Orbit
Molniya
Country
Flag of CISCIS
Related business
Manufacturer
Lavochkin
Mission
Spacecraft
Bus & Motor
FREGAT, Unknown motor
Mass
1,000 kg wet, 1,000 kg dry
Launch date (UTC)
2020-05-22 (5 years ago)
Launch vehicle
Unknown
Launch site
Plesetsk Missile And Space Complex (PKMTR)
Object type
Payload
Rocket body
Debris
Shape & HBR
Irr, 1.7 m
Radar Cross Section
12.110 m², Large (>1 m²)

Expand to show TLE details & history
Last TLE update: 10 hours ago

TLE from 10 hours ago
0 FREGAT R/B
1 45609U 20031B   25258.48104021 -.00001360  00000-0  00000-0 0  9993
2 45609  63.5753  98.6410 7031359 258.2298  21.6937  2.01431679 39123
Epoch: 2025-09-15T11:32Z
TLE epoch observation values (Epoch: 2025-09-15T11:32:41.874Z)
Latitude
0.00002°
Longitude
-69.21916°
Altitude
9,248.092 km
Speed
5.998 km/s
True Right ascension
06h 34m 33s
True Declination
0° 00' 00"
Sunlit
Object was in daylight at epoch
Visualization orbit readout
Latitude
Unknown
Longitude
Unknown
Altitude
Unknown
Speed
Unknown
Apparent Right ascension
Unknown
Apparent Declination
Unknown
Sunlit
N/A
Visualization observer readout
Local Sidereal Time
14:41:39
Azimuth
Unknown
Elevation
Unknown
Doppler factor
Unknown
Orbital elements
Apogee altitude
38,726.117 km
Perigee altitude
1,483.733 km
Semi-major axis
26,483.062 km
Eccentricity
0.70314
Inclination
63.5753°
RAAN
98.641°
Arg. of periapsis
258.2298°
True anomaly
101.92525°
Mean anomaly
21.6937°
Eccentric anomaly
54.48604°
Mean motion
0.50361 °/min
Orbital period
714.84 mins
BSTAR
0
Loading maneuver chart data...
Computing Atmospheric mass density...
Loading historical data...
Loading historical data...
Loading historical data...
Loading historical data...
Loading historical data...
Loading historical data...
Loading historical data...
Other satellites on launch #31 in the year 2020 (2020-05-22 UTC)

Documentation

Showing up to 5 results
|